This demonstration page uses our WeatherBlox Daily Observations layout. Learn more.

Left ArrowRight Arrow

34.74481, -87.66753

Hourly Observations for May 13, 2019

Temp ( °F °C ) Dew Point ( °F °C ) Humidity (%) Winds ( mph kmh ) Pressure ( in mb ) Visibility ( mi km ) Precip ( " mm )
12:53 am 00:53 Clear 56 13.3 53 11.7 90 90 WNW 5 7 29.87 1011 10 16 0.00 0.00
1:53 am 01:53 Clear 56 13.3 53 11.7 90 90 WNW 3 6 29.87 1012 10 16 0.00 0.00
2:53 am 02:53 Mostly Cloudy 57 13.9 55 12.8 93 93 NNW 3 6 29.89 1012 10 16 0.00 0.00
3:53 am 03:53 Mostly Cloudy 57 13.9 54 12.2 90 90 Calm 29.88 1012 10 16 0.00 0.00
4:53 am 04:53 Mostly Clear 56 13.3 54 12.2 93 93 SW 3 6 29.88 1012 10 16 0.00 0.00
5:53 am 05:53 Sunny 54 12.2 52 11.1 93 93 WSW 3 6 29.90 1012 10 16 0.00 0.00
6:53 am 06:53 Sunny 57 13.9 54 12.2 90 90 WNW 3 6 29.92 1013 10 16 0.00 0.00
7:36 am 07:36 Mostly Sunny 61 16.1 57 13.9 87 87 NNW 5 7 29.95 1014 10 16 0.00 0.00
7:53 am 07:53 Partly Cloudy 61 16.1 57 13.9 87 87 NW 6 9 29.94 1014 10 16 0.00 0.00
8:01 am 08:01 Mostly Cloudy 61 16.1 58 14.4 90 90 NW 3 6 29.96 1014 10 16 0.00 0.00
8:27 am 08:27 Cloudy 60 15.6 56 13.3 86 86 NW 7 11 29.96 1014 10 16 0.00 0.00
8:53 am 08:53 Cloudy 61 16.1 55 12.8 81 81 NW 5 7 29.95 1014 10 16 0.00 0.00
9:53 am 09:53 Cloudy 62 16.7 54 12.2 75 75 WNW 7 11 29.96 1015 10 16 0.00 0.00
10:15 am 10:15 Mostly Cloudy 63 17.2 54 12.2 73 73 undefined N/A 29.96 1015 10 16 0.00 0.00
10:53 am 10:53 Mostly Cloudy 65 18.3 53 11.7 66 66 W 6 9 29.96 1015 10 16 0.00 0.00
11:36 am 11:36 Partly Cloudy 67 19.4 53 11.7 61 61 W 10 17 29.97 1015 10 16 0.00 0.00
11:53 am 11:53 Mostly Cloudy 67 19.4 52 11.1 59 59 NNW 8 13 29.97 1015 10 16 0.00 0.00
12:53 pm 12:53 Mostly Sunny 71 21.7 51 10.6 49 49 NW 7 11 29.95 1014 10 16 0.00 0.00
1:53 pm 13:53 Sunny 73 22.8 53 11.7 50 50 W 8 13 29.95 1014 10 16 0.00 0.00
2:53 pm 14:53 Mostly Cloudy 70 21.1 52 11.1 53 53 VRB 6 9 29.94 1014 10 16 0.00 0.00
3:53 pm 15:53 Cloudy 73 22.8 51 10.6 46 46 WNW 13 20 29.93 1014 10 16 0.00 0.00
4:53 pm 16:53 Partly Cloudy 69 20.6 52 11.1 55 55 NW 6 9 29.93 1014 10 16 0.00 0.00
5:53 pm 17:53 Partly Cloudy 70 21.1 50 10 49 49 NW 8 13 29.94 1014 10 16 0.00 0.00
6:53 pm 18:53 Mostly Cloudy 67 19.4 51 10.6 57 57 NW 6 9 29.95 1014 10 16 0.00 0.00
7:14 pm 19:14 Mostly Sunny 67 19.4 50 10 55 55 NNW 8 13 29.96 1015 10 16 0.00 0.00
7:53 pm 19:53 Clear 63 17.2 51 10.6 65 65 NNW 3 6 29.97 1015 10 16 0.00 0.00
8:53 pm 20:53 Clear 62 16.7 50 10 65 65 N 5 7 29.98 1015 10 16 0.00 0.00
9:53 pm 21:53 Clear 61 16.1 51 10.6 70 70 N 6 9 30.00 1016 10 16 0.00 0.00
10:53 pm 22:53 Clear 60 15.6 50 10 70 70 NNE 6 9 30.02 1017 10 16 0.00 0.00
11:53 pm 23:53 Clear 58 14.4 50 10 75 75 NNE 5 7 30.02 1017 10 16 0.00 0.00

Powered by AerisWeather